SILO ALERT LOG


Silo ID Alert Type Alert Message Silo Type Points Depth (mm) Strength Temperature (°C) Humidity (%) Height (mm) Volume (㎥) Weight (t) Flag Time
DJSAD11 Humidity 습도센서 측정값이 80% 초과 285 1511 13140 1.4 80.6 6068 863.43 545.86 11 2024-01-04 08:39:30.000
DJSSD11 Temperature 온도센서 측정값이 0도 미만 호퍼 443 7393 146 -2.5 87.1 3836 28.832 15.713 0 2024-01-04 08:39:30.000
DJSSD11 Humidity 습도센서 측정값이 80% 초과 호퍼 443 7393 146 -2.5 87.1 3836 28.832 15.713 0 2024-01-04 08:39:30.000
DJSAD17 Humidity 습도센서 측정값이 80% 초과 450 3124 4783 3.5 80.2 4455 443.696 280.505 0 2024-01-04 08:39:30.000
DJHNR12 Humidity 습도센서 측정값이 80% 초과 호퍼 43 472 773 1.2 82.8 9907 159.749 100.993 11 2024-01-04 08:39:29.000
DJSAD18 Humidity 습도센서 측정값이 80% 초과 118 1422 5698 4.2 80.8 6157 613.119 387.614 11 2024-01-04 08:39:29.000
DJSSD12 Temperature 온도센서 상태 이상 호퍼 0 11350 0 -999 -999 -120 0 0 31 2024-01-04 08:39:25.000
DJHNR03 Temperature 온도센서 상태 이상 호퍼 0 15500 0 -999 -999 -119 0 0 31 2024-01-04 08:39:24.000
DJSAD05 Humidity 습도센서 측정값이 80% 초과 464 1545 8822 0.3 80.6 7234 299.465 189.322 0 2024-01-04 07:39:40.000
DJSAD01 Humidity 습도센서 측정값이 80% 초과 467 1416 7253 0.8 89.5 7363 304.828 192.712 0 2024-01-04 07:39:39.000
DJDJD03 Humidity 습도센서 측정값이 80% 초과 53 5836 5011 1.9 81.9 1843 223.318 141.182 0 2024-01-04 07:39:39.000
DJSAD03 Humidity 습도센서 측정값이 80% 초과 449 1730 6135 1.8 84.5 7049 291.833 184.497 0 2024-01-04 07:39:39.000
DJSAD02 Humidity 습도센서 측정값이 80% 초과 473 856 7138 1.6 89.2 7923 328.007 207.366 13 2024-01-04 07:39:38.000
DJSSD01 Humidity 습도센서 측정값이 80% 초과 800 2558 4694 5.4 83.6 5521 768.514 485.854 0 2024-01-04 07:39:34.000
DJSSD04 Temperature 온도센서 상태 이상 0 8200 0 -999 -999 -120 -16.702 0 31 2024-01-04 07:39:34.000
DJSAD12 Humidity 습도센서 측정값이 80% 초과 0 7700 0 2.9 86.5 -120 -17.075 0 31 2024-01-04 07:39:33.000
DJHNR01 Humidity 습도센서 측정값이 80% 초과 호퍼 471 4307 4881 3.6 99.9 11072 472.84 298.929 13 2024-01-04 07:39:33.000
DJSSD05 Temperature 온도센서 측정값이 0도 미만 838 2550 4902 -45.4 43.4 5529 769.637 486.564 0 2024-01-04 07:39:33.000
DJSAD07 Humidity 습도센서 측정값이 80% 초과 654 2545 2709 3.4 85.8 5034 716.424 452.923 0 2024-01-04 07:39:32.000
DJSAD08 Humidity 습도센서 측정값이 80% 초과 595 2532 4944 6.6 84.1 5047 718.193 454.042 12 2024-01-04 07:39:32.000

[첫 페이지] [10197] [10198] [10199] [10200] 10201 [10202] [10203] [10204] [10205] [마지막 페이지]